Location: Diebersbach
(48.5163°N, 8.0558°E)
Time: 09:04:06
(UTC+00:00)

Cosmos 1825 - Visible Passes

Search period start: 28 October 2021 00:00
Search period end: 07 November 2021 00:00
Orbit: 499 x 506 km, 82.5° (Epoch: 27 October)

Date Brightness Start Highest point End Pass type
(mag) Time Alt. Az. Time Alt. Az. Time Alt. Az.
28 Oct 2.3 18:16:39 10° NNW 18:20:25 70° W 18:23:11 17° S visible
29 Oct 2.0 17:57:36 10° N 18:01:24 86° E 18:05:09 10° S visible
30 Oct 2.0 17:38:36 10° N 17:42:21 63° E 17:46:05 10° SSE visible
30 Oct 5.6 19:16:07 10° WNW 19:17:15 11° W 19:18:23 10° W visible
31 Oct 2.4 17:19:38 10° N 17:23:17 46° ENE 17:26:55 10° SSE visible
31 Oct 5.3 18:56:13 10° NW 18:58:21 15° W 19:00:28 10° WSW visible
01 Nov 5.4 05:37:41 10° ESE 05:39:42 14° E 05:41:45 10° NE visible
01 Nov 2.7 17:00:43 10° N 17:04:13 35° ENE 17:07:40 10° SE visible
01 Nov 4.9 18:36:43 10° NW 18:39:25 19° W 18:42:07 10° SW visible
02 Nov 5.8 05:19:53 10° E 05:20:48 11° E 05:21:43 10° ENE visible
02 Nov 3.1 16:41:51 10° NNE 16:45:07 27° ENE 16:48:20 10° SE visible
02 Nov 4.5 18:17:22 10° NW 18:20:28 25° W 18:23:34 10° SW visible
03 Nov 4.0 17:58:07 10° NNW 18:01:30 32° W 18:04:53 10° SSW visible
04 Nov 3.4 17:38:55 10° NNW 17:42:31 43° W 17:46:06 10° SSW visible
05 Nov 2.8 17:19:47 10° NNW 17:23:31 59° W 17:27:12 10° S visible
06 Nov 4.0 05:36:08 10° SSE 05:39:35 37° E 05:43:04 10° NNE visible
06 Nov 2.2 17:00:42 10° NNW 17:04:29 81° W 17:08:14 10° S visible
